AirNav   Pilot Hours Calculator
 
 608 users online  

00AL Epps Airpark
Harvest, Alabama, USA

GOING TO HARVEST?


FAA INFORMATION EFFECTIVE 07 OCTOBER 2021

Location

FAA Identifier: 00AL
Lat/Long: 34-51-53.3170N 086-46-12.9990W
34-51.888617N 086-46.216650W
34.8648103,-86.7702775
(estimated)
Elevation: 820 ft. / 250 m (estimated)
Variation: 00W (1985)
From city: 1 mile NW of HARVEST, AL
Time zone: UTC -5 (UTC -6 during Standard Time)
Zip code: 35749

Airport Operations

Airport use: Private use. Permission required prior to landing
Activation date: 10/1964
Control tower: no
ARTCC: MEMPHIS CENTER
FSS: ANNISTON FLIGHT SERVICE STATION
Attendance: UNATNDD
Wind indicator: yes
Segmented circle: no

Airport Communications

WX AWOS-3PT at MDQ (10 nm E): 120.000 (256-829-1242)
WX ASOS at HSV (14 nm S): 121.25 (256-772-8074)
WX ASOS at DCU (15 nm SW): 118.375 (256-350-4270)
WX AWOS-3 at FYM (15 nm NE): 135.275 (931-433-5916)

Nearby radio navigation aids

VOR radial/distance  VOR name  Freq  Var
RQZr299/7.8ROCKET VORTAC112.2002E
MSLr074/36.8MUSCLE SHOALS VORTAC116.5001E

Airport Services

Airframe service: NONE
Powerplant service: NONE

Runway Information

Runway 1/19

Dimensions: 2100 x 90 ft. / 640 x 27 m
Surface: turf
RUNWAY 1  RUNWAY 19
Traffic pattern: leftleft

Airport Ownership and Management from official FAA records

Ownership: Privately-owned
Owner: GEORGE F. EPPS
410 PEPPERWOOD CIR SW, P.O. BOX 356
HUNTSVILLE, AL 35801-6499
Phone 256-837-2369
Manager: GEORGE F. EPPS
410 PEPPERWOOD CIR SW, P.O. BOX 356
HUNTSVILLE, AL 35801-6499
Phone 256-837-2369

Airport Operational Statistics

Aircraft based on the field: 7
Single engine airplanes: 7
    

Additional Remarks

FOR CD CTC HUNTSVILLE APCH AT 256-542-2070. WHEN APCH CLSD CTC MEMPHIS ARTCC AT 901-368-8453/8449.

Instrument Procedures

There are no published instrument procedures at 00AL.

Some nearby airports with instrument procedures:

KMDQ - Huntsville Executive Airport / Tom Sharp Jr Field (10 nm E)
KHUA - Redstone Army Airfield (12 nm S)
KHSV - Huntsville International Airport-Carl T Jones Field (14 nm S)
KDCU - Pryor Field Regional Airport (15 nm SW)
KFYM - Fayetteville Municipal Airport (15 nm NE)
 
Loc | Ops | Rwys | IFR | FBO | Links
Com | Nav | Svcs | Stats | Notes
Area around 00AL (Epps Airpark)
 
Road maps at: MapQuest Bing Google
 
Aerial photo
No photo
 
Sectional chart

 
Airport distance calculator
Flying to Epps Airpark? Find the distance to fly.

From to 00AL

Sunrise and sunset
Times for 19-Oct-2021
 Local
(UTC-5)
 Zulu
(UTC)
Morning civil twilight06:3211:32
Sunrise06:5711:57
Sunset18:0723:07
Evening civil twilight18:3223:32

Current date and time
Zulu (UTC)  19-Oct-2021 10:56:53
Local (UTC-5)  19-Oct-2021 05:56:53
 
METAR
KMDQ 
11nm E 
191035Z AUTO 00000KT 10SM CLR 06/06 A3022 RMK A02 T00590056
KHUA 
12nm S 
190958Z AUTO 03003KT 7SM CLR 07/07 A3018 RMK AO2 SLP220 T00730072
KHSV 
13nm S 
190953Z AUTO 08005KT 10SM CLR 07/07 A3019 RMK AO2 SLP220 T00720067
KFYM 
15nm NE 
191035Z AUTO 00000KT 8SM CLR 07/07 A3022 RMK A01
KDCU 
16nm SW 
190953Z AUTO 00000KT 10SM CLR 06/05 A3020 RMK AO2 SLP225 T00610050 $
TAF
KHUA 
12nm S 
182000Z 1820/2002 VRB06KT 9999 SKC QNH3016INS TX23/1821Z TN07/1912Z LAST NO AMDS AFT 1900 NEXT 1912
KHSV 
13nm S 
190520Z 1906/2006 15003KT P6SM SKC
NOTAMs
Click for the latest NOTAMs
NOTAMs are issued by the DoD/FAA and will open in a separate window not controlled by AirNav.

 

 
 

Would you like to see your business listed on this page?

 If your business provides an interesting product or service to pilots, flight crews, aircraft, or users of the Epps Airpark, you should consider listing it here.  To start the listing process, click on the button below
 
Add a business
 

Other Pages about Epps Airpark

Update a link
 
Copyright © AirNav, LLC. All rights reserved. Privacy Policy  Contact